Location: Unspecified
(0.0000°N, 0.0000°E)
Time: 07:29:59
(UTC+00:00)

Tiangong 2 - Pass Details

Date: 14 December 2018
Orbit: 382 x 392 km, 42.8° (Epoch: 11 December)

Event Time Altitude Azimuth Distance (km) Brightness Sun altitude
Rises 18:23:41 0° 254° (WSW) 2,251 7.3 -6.6°
Reaches altitude 10° 18:26:27 10° 281° (W) 1,394 4.9 -7.3°
Maximum altitude 18:28:14 14° 315° (NW) 1,172 3.8 -7.7°
Drops below altitude 10° 18:30:00 10° 350° (N) 1,388 3.7 -8.1°
Enters shadow 18:32:22 - 14° (NNE) 2,100 4.4 -8.6°
